Weather History for Hamilton, OH

Change the Weather History Date:

Wednesday, April 10, 2013

  Actual Average (KCVG) Record (KCVG)
Temperature  
Mean Temperature 74 °F 52 °F  
Max Temperature 87 °F 63 °F 85 °F (2011)
Min Temperature 63 °F 42 °F 23 °F (1996)
Degree Days  
Heating Degree Days 0 13  
Month to date heating degree days 145  
Since 1 July heating degree days 4638  
Cooling Degree Days 8 0  
Month to date cooling degree days 0  
Year to date cooling degree days 0  
Growing Degree Days 24 (Base 50)    
Moisture  
Dew Point 59 °F    
Average Humidity 59    
Maximum Humidity 80    
Minimum Humidity 41    
Precipitation  
Precipitation 0.00 in 0.13 in 1.60 in (1994)
Month to date precipitation 1.27  
Year to date precipitation 11.04  
Snow  
Snow 0.00 in 0.00 in 1.80 in (1973)
Month to date snowfall 0.3  
Since 1 July snowfall 21.9  
Snow Depth -    
Sea Level Pressure  
Sea Level Pressure 29.88 in    
Wind  
Wind Speed 7 mph (SSW)    
Max Wind Speed 16 mph    
Max Gust Speed 30 mph    
Visibility 10 miles    
Events      
T = Trace of Precipitation, MM = Missing Value Source: NWS Daily Summary

Daily Weather History Graph

Daily Weather History Graph

Search for Another Location

Airport:

Trip Planner

Search our weather history database for the weather conditions in past years. The results will help you decide how hot, cold, wet, or windy it might be!

Date:

Astronomy

Apr. 10, 2013 Rise Set
Actual Time 7:08 AM EDT 8:11 PM EDT
Civil Twilight 6:40 AM EDT 8:38 PM EDT
Nautical Twilight 6:08 AM EDT 9:11 PM EDT
Astronomical Twilight 5:34 AM EDT 9:45 PM EDT
Moon 7:03 AM EDT (4/10) 8:45 PM EDT (4/10)
Length of Visible Light 13h 57m
Length of Day
13h 02m
New Moon, 0% of the Moon is Illuminated
Apr 10
New Moon
Apr 18
First Quarter
Apr 25
Full
May 2
Last Quarter
May 9
New

Hourly Weather History & Observations

Time (EDT) Temp. Heat Index Dew Point Humidity Pressure Visibility Wind Dir Wind Speed Gust Speed Precip Events Conditions
12:53 AM 70.0 °F - 57.0 °F 63% 29.96 in 10.0 mi SW 4.6 mph - N/A   Partly Cloudy
1:53 AM 70.0 °F - 57.9 °F 65% 29.94 in 10.0 mi SW 3.5 mph - N/A   Overcast
2:53 AM 70.0 °F - 57.9 °F 65% 29.94 in 10.0 mi Calm Calm - N/A   Mostly Cloudy
3:53 AM 63.0 °F - 55.9 °F 78% 29.93 in 10.0 mi SSE 3.5 mph - N/A   Mostly Cloudy
4:53 AM 64.0 °F - 57.9 °F 80% 29.93 in 10.0 mi Calm Calm - N/A   Mostly Cloudy
5:53 AM 66.9 °F - 57.9 °F 73% 29.93 in 10.0 mi SSW 4.6 mph - N/A   Mostly Cloudy
6:53 AM 68.0 °F - 57.0 °F 68% 29.93 in 10.0 mi South 4.6 mph - N/A   Overcast
7:53 AM 70.0 °F - 57.0 °F 63% 29.93 in 10.0 mi SSW 6.9 mph - N/A   Mostly Cloudy
8:53 AM 73.0 °F - 57.9 °F 59% 29.92 in 10.0 mi SW 8.1 mph - N/A   Partly Cloudy
9:53 AM 73.9 °F - 59.0 °F 59% 29.93 in 10.0 mi SW 8.1 mph 23.0 mph N/A   Mostly Cloudy
10:53 AM 77.0 °F - 61.0 °F 58% 29.93 in 10.0 mi SW 16.1 mph 24.2 mph N/A   Mostly Cloudy
11:53 AM 79.0 °F - 62.1 °F 56% 29.93 in 10.0 mi SW 15.0 mph 26.5 mph N/A   Partly Cloudy
12:53 PM 81.0 °F 82.2 °F 63.0 °F 54% 29.92 in 10.0 mi SW 16.1 mph 23.0 mph N/A   Scattered Clouds
1:53 PM 82.9 °F 84.0 °F 63.0 °F 51% 29.90 in 10.0 mi SW 12.7 mph 25.3 mph N/A   Partly Cloudy
2:53 PM 84.9 °F 85.0 °F 61.0 °F 44% 29.86 in 10.0 mi SW 13.8 mph 24.2 mph N/A   Partly Cloudy
3:53 PM 84.9 °F 84.8 °F 60.1 °F 43% 29.84 in 10.0 mi South 15.0 mph 24.2 mph N/A   Mostly Cloudy
4:53 PM 84.9 °F 84.4 °F 59.0 °F 41% 29.82 in 10.0 mi SW 13.8 mph 29.9 mph N/A   Partly Cloudy
5:53 PM 82.9 °F 82.8 °F 59.0 °F 44% 29.81 in 10.0 mi SSW 11.5 mph 24.2 mph N/A   Clear
6:53 PM 82.0 °F 82.0 °F 57.9 °F 44% 29.80 in 10.0 mi SSW 9.2 mph - N/A   Clear
7:53 PM 80.1 °F 80.7 °F 59.0 °F 48% 29.80 in 10.0 mi SSW 4.6 mph - N/A   Mostly Cloudy
8:53 PM 79.0 °F - 59.0 °F 50% 29.79 in 10.0 mi South 4.6 mph - N/A   Scattered Clouds
9:53 PM 69.1 °F - 57.9 °F 68% 29.80 in 10.0 mi NNE 9.2 mph - N/A   Overcast
10:53 PM 66.0 °F - 57.0 °F 73% 29.80 in 10.0 mi ENE 4.6 mph - N/A   Clear
11:53 PM 66.0 °F - 57.0 °F 73% 29.82 in 10.0 mi NE 12.7 mph 16.1 mph N/A   Overcast